www.pogodaiklimat.ru
Время
(UTC), дата
16 5.11
17 5.11
18 5.11
19 5.11
20 5.11
21 5.11
22 5.11
23 5.11
00 6.11
01 6.11
02 6.11
03 6.11
04 6.11
05 6.11
06 6.11
07 6.11
08 6.11
09 6.11
10 6.11
11 6.11
12 6.11
13 6.11
14 6.11
15 6.11
16 6.11
17 6.11
18 6.11
19 6.11
20 6.11
21 6.11
22 6.11
23 6.11
00 7.11
01 7.11
02 7.11
03 7.11
04 7.11
05 7.11
06 7.11
07 7.11
08 7.11
09 7.11
10 7.11
11 7.11
12 7.11
13 7.11
14 7.11
15 7.11
16 7.11
17 7.11
18 7.11
19 7.11
20 7.11
21 7.11
22 7.11
23 7.11
00 8.11
01 8.11
02 8.11
03 8.11
04 8.11
05 8.11
06 8.11
07 8.11
08 8.11
09 8.11
10 8.11
11 8.11
12 8.11
13 8.11
14 8.11
15 8.11
16 8.11
17 8.11
18 8.11
19 8.11
20 8.11
21 8.11
22 8.11
23 8.11
00 9.11
01 9.11
02 9.11
03 9.11
04 9.11
05 9.11
06 9.11
07 9.11
08 9.11
09 9.11
10 9.11
11 9.11
12 9.11
13 9.11
14 9.11
15 9.11
16 9.11
17 9.11
18 9.11
19 9.11
20 9.11
21 9.11
22 9.11
23 9.11
00 10.11
01 10.11
02 10.11
03 10.11
04 10.11
05 10.11
06 10.11
07 10.11
08 10.11
09 10.11
10 10.11
11 10.11
12 10.11
13 10.11
14 10.11
15 10.11
16 10.11
17 10.11
18 10.11
19 10.11
20 10.11
21 10.11
22 10.11
23 10.11
00 11.11
01 11.11
02 11.11
03 11.11
04 11.11
05 11.11
06 11.11
07 11.11
08 11.11
09 11.11
10 11.11
11 11.11
12 11.11
13 11.11
14 11.11
15 11.11
16 11.11
17 11.11
18 11.11
19 11.11
20 11.11
21 11.11
22 11.11
23 11.11
00 12.11
01 12.11
02 12.11
03 12.11
04 12.11
05 12.11
06 12.11
07 12.11
08 12.11
09 12.11
10 12.11
11 12.11
12 12.11
13 12.11
14 12.11
17 12.11
Ветер
(напр.,м/с)
Видим. Явления Облачность Т
(С)
Тd
(С)
f
(%)
Тe
(С)
Тes
(С)
Комфортность P
(гПа)
Po
(гПа)
Тmin
(С)
Tmax
(С)
R
(мм)
R24
(мм)
S
(см)
ЮЗ 2 9000 м дымка 10/10 1500 м
[]
+9.7 +8.0 89 +8 +8 тепло 997.5 997.1
З 2 12 км 10/10 1500 м
[]
+9.7 +7.9 89 +8 +8 тепло 997.9 997.5
ЮЗ 2-2
{4}
9000 м дымка 10/10 1050 м
[]
+8.9 +8.1 95 +7 +7 тепло 998.2 997.9 +10.9
ЮЗ 1 6000 м дымка 10/10 1500 м
[]
+8.6 +8.0 96 +8 +8 тепло 998.4 998.0
ЮЗ 1 8000 м дымка 10/10 1500 м
[]
+9.0 +8.1 94 +8 +8 тепло 998.6 998.2
Ю 1-1
{2}
10 км в посл. час дождь {ливн. осадки} 10/10 360 м
[]
+9.4 +8.4 93 +9 +9 тепло 999.0 998.6
ЮЗ 1-2
{3}
4900 м сильн. морось {ливн. осадки, дымка} 10/6 300 м
[]
+9.3 +8.3 93 +9 +9 тепло 999.1 998.7 0.3
З 1-2
{3}
4900 м слаб. морось {дымка} 10/8 100 м
[]
+9.2 +8.9 98 +8 +8 тепло 999.6 999.1 2
С 2-4
{4}
5000 м в посл. час морось {ливн. осадки, дымка} 10/10 60 м
[]
+9.2 +8.7 97 +7 +7 тепло 999.9 999.5 0.1
СЗ 1-2
{3}
7000 м дымка 10/9 300 м
[]
+9.0 +8.5 97 +8 +8 тепло 1000.2 999.7
С 1-2
{3}
15 км 10/10 2000 м
[]
+8.7 +8.0 95 +8 +8 тепло 1000.3 999.9
СЗ 2-3
{4}
16 км 10/10 210 м
[]
+8.4 +7.9 97 +6 +6 тепло 1000.5 1000.0
СЗ 2 13 км 10/8 200 м
[]
+8.4 +7.9 97 +6 +6 тепло 1000.7 1000.3
10 км 10/9 200 м
[]
+8.4 +7.6 95 1001.0 1000.6
С 1-2
{6}
45 км 10/10 870 м
[]
+8.1 +7.3 95 +7 +7 тепло 1001.5 1001.1 +8.1
З 1 29 км 10/10 1000 м
[]
+7.9 +7.3 96 +7 +7 тепло 1002.3 1001.8
З 1 21 км 10/10 1000 м
[]
+8.0 +7.3 95 +7 +7 тепло 1002.7 1002.3
СЗ 1-3
{3}
19 км 10/10 750 м
[]
+8.6 +7.4 92 +8 +8 тепло 1003.0 1002.6
СЗ 2 35 км 10/10
[]
+9.1 +5.8 80 +7 +7 тепло 1003.3 1002.9
С 3 30 км 8/8
[]
+9.9 +4.7 70 +8 +8 тепло 1003.4 1003.0
С 3-5
{5}
23 км 4/4 840 м
[]
+10.3 +3.6 63 +8 +10 тепло 1003.1 1002.7
З 1 35 км 10/10
[]
+10.7 +3.5 61 +11 +11 тепло 1003.1 1002.7
СЗ 2 35 км 10/10 1000 м
[]
+10.6 +3.7 62 +10 +10 тепло 1002.9 1002.5
СЗ 1-2
{4}
40 км 10/10 930 м
[]
+9.7 +4.3 69 +9 +9 тепло 1003.0 1002.6
СЗ 1 45 км 10/10
[]
+7.7 +5.4 85 +7 +7 тепло 1002.9 1002.5
штиль 0 35 км 10/10 1500 м
[]
+6.9 +5.9 93 +6 +6 тепло 1003.0 1002.6
В 1-1
{2}
40 км 10/10 960 м
[]
+7.2 +5.5 89 +6 +6 тепло 1003.0 1002.6 +11.4
СВ 1 30 км в посл. час осадки {ливн. осадки} 10/10 1000 м
[]
+7.3 +6.4 94 +6 +6 тепло 1002.8 1002.4
В 1 30 км в посл. час морось {ливн. осадки} 10/10 1000 м
[]
+7.1 +6.0 93 +6 +6 тепло 1002.5 1002.1
ЮВ 2-2
{3}
28 км {ливн. осадки, морось} 10/10 930 м
[]
+7.1 +5.7 91 +5 +5 тепло 1002.2 1001.8
ЮВ 1-2
{3}
22 км {ливн. осадки, морось} 10/10 1000 м
[]
+7.3 +5.9 91 +6 +6 тепло 1001.5 1001.2
В 2-2
{2}
15 км слаб. морось 10/10 1000 м
[]
+7.3 +6.3 93 +5 +5 тепло 1000.9 1000.6 0.1
ЮВ 2-2
{4}
11 км в посл. час морось {ливн. осадки} 10/10 210 м
[]
+7.1 +6.5 96 +5 +5 тепло 1000.4 1000.0 0.2
ЮВ 2-3
{3}
7000 м дымка 10/10 200 м
[]
+7.4 +6.9 97 +5 +5 тепло 1000.1 999.7
ЮВ 2-3
{3}
5000 м дымка 10/10
[]
+6.8 +6.2 96 +4 +4 по сезону 999.2 998.9
ЮВ 3-4
{4}
3100 м дымка 9/9 90 м
[]
+6.7 +6.3 97 +3 +3 по сезону 998.5 998.2
ЮВ 3 3000 м дымка 10/10 100 м
[]
+7.4 +6.9 97 +4 +4 по сезону 998.1 997.7
ЮВ 3 2700 м в посл. час осадки {дымка} 10/8 100 м
[]
+7.6 +7.1 97 +5 +5 тепло 997.4 997.1
В 4-6
{6}
3400 м в посл. час осадки {ливн. осадки, дымка} 10/10 90 м
[]
+7.7 +7.1 96 +4 +4 по сезону 996.8 996.4 +6.1
В 3 5000 м дымка 10/6 600 м
[]
+7.7 +7.0 95 +5 +5 тепло 996.3 996.0
ЮВ 4 8000 м дымка 10/9 600 м
[]
+8.3 +7.3 93 +5 +5 тепло 995.8 995.5
В 4-5
{7}
9000 м дымка 10/10 210 м
[]
+8.7 +7.4 92 +5 +5 тепло 995.2 994.9
ЮВ 5 15 км 10/10 1500 м
[]
+9.3 +7.4 88 +6 +6 тепло 995.0 994.6
ЮВ 4 11 км морось {ливн. осадки, дождь} 10/10 1000 м
[]
+9.5 +7.9 90 +7 +7 тепло 994.4 994.0 0.2
ЮВ 5-8
{8}
7000 м дождь {ливн. осадки, морось} 10/10 300 м
[]
+9.5 +7.9 90 +6 +6 тепло 993.9 993.6 0.8
ЮВ 4 6000 м дождь 10/8 300 м
[]
+9.0 +7.9 93 +6 +6 тепло 993.2 992.8 2
Ю 4 9000 м дождь 10/8 300 м
[]
+8.9 +7.7 92 +6 +6 тепло 993.4 993.0 2
ЮЗ 6-9
{9}
45 км в посл. час дождь 10/10 270 м
[]
+9.0 +6.5 84 +5 +5 тепло 994.5 994.0 1
Ю 4 45 км {дождь} 10/6 1000 м
[]
+8.6 +6.5 87 +5 +5 тепло 995.6 995.1
Ю 4 45 км {дождь} 3/1 600 м
[]
+8.4 +5.9 84 +5 +5 тепло 996.6 996.1
Ю 6-10
{10}
45 км {дождь} 6/6 1170 м
[]
+8.3 +5.3 81 +4 +4 по сезону 997.6 997.2 +9.6
Ю 5 45 км 4/4 1000 м
[]
+7.4 +4.6 82 +4 +4 по сезону 998.5 998.0
Ю 4 45 км 9/9
[]
+7.0 +4.2 82 +3 +3 по сезону 999.5 999.0
Ю 4-6
{7}
45 км 9/0
[]
+6.5 +4.1 85 +3 +3 по сезону 1000.1 999.7
Ю 4-6
{6}
45 км ясно +6.1 +3.9 86 +2 +2 по сезону 1000.8 1000.4
Ю 4-7
{7}
40 км 3/3
[]
+5.7 +3.8 88 +2 +2 по сезону 1001.2 1000.8
Ю 4-7
{8}
40 км ясно +5.4 +3.5 88 +1 +1 по сезону 1001.5 1001.1
Ю 3-5
{5}
30 км ясно +4.6 +3.2 91 +1 +1 по сезону 1002.1 1001.6
Ю 3-4
{5}
21 км ясно +4.1 +3.0 93 0 0 по сезону 1002.3 1001.9
Ю 3-5
{5}
19 км ясно +3.6 +2.5 93 -0 -0 по сезону 1002.3 1001.9
ЮВ 2 16 км ясно +2.9 +2.1 94 -0 -0 по сезону 1003.3 1002.8
ЮВ 2 16 км ясно +2.9 +2.2 95 -0 -0 по сезону 1003.7 1003.3
Ю 2-3
{5}
15 км ясно +2.7 +2.2 97 -1 -1 по сезону 1004.2 1003.8 +2.6
Ю 2 15 км ясно +2.6 +2.2 97 -1 -1 по сезону 1004.8 1004.3
Ю 2 17 км ясно +3.8 +2.7 93 +1 +1 по сезону 1005.3 1004.9
Ю 2-4
{4}
27 км ясно +5.6 +3.5 86 +3 +4 по сезону 1005.6 1005.1
ЮЗ 2 24 км ясно +7.3 +4.6 83 +5 +7 тепло 1005.9 1005.5
Ю 2 23 км ясно +8.3 +5.0 80 +6 +9 тепло 1006.1 1005.6
Ю 3-5
{5}
24 км ясно +8.6 +5.2 79 +6 +8 тепло 1005.7 1005.3
Ю 3 35 км 1/1 300 м
[]
+9.3 +5.1 75 +7 +9 тепло 1005.6 1005.2
Ю 3 27 км 1/1 300 м
[]
+9.4 +5.4 76 +7 +8 тепло 1005.7 1005.3
Ю 2-4
{5}
30 км 5/5 570 м
[]
+9.0 +5.2 77 +7 +8 тепло 1006.3 1005.9
Ю 2 35 км ясно +6.8 +4.6 86 +5 +5 тепло 1006.8 1006.4
ЮВ 2 7000 м дымка ясно +4.3 +3.5 95 +1 +1 по сезону 1007.1 1006.7
Ю 2-4
{4}
13 км ясно +3.4 +3.0 97 0 0 по сезону 1007.1 1006.7 +9.7
ЮВ 2 3300 м дымка ясно +2.5 +2.3 99 -1 -1 по сезону 1007.2 1006.8
Ю 2 3700 м дымка ясно +2.2 +1.9 98 -1 -1 по сезону 1007.6 1007.1
Ю 2-4
{4}
9000 м дымка ясно +3.4 +3.3 99 0 0 по сезону 1007.9 1007.5
Ю 3-4
{4}
11 км 10/10
[]
+4.2 +3.4 95 0 0 по сезону 1007.5 1007.1
Ю 2-3
{4}
8000 м дымка 4/4
[]
+3.4 +2.8 96 0 0 по сезону 1007.2 1006.8
Ю 3-4
{4}
5000 м дымка 6/6 210 м
[]
+3.3 +2.8 97 -1 -1 по сезону 1007.0 1006.6
Ю 2-3
{4}
5000 м дымка 9/9 200 м
[]
+3.6 +3.1 97 0 0 по сезону 1006.8 1006.4
Ю 3-4
{4}
5000 м дымка 10/10 100 м
[]
+4.3 +3.7 96 0 0 по сезону 1006.6 1006.2
Ю 3-4
{4}
3700 м морось с дождем {дымка} 10/10 90 м
[]
+5.7 +5.1 96 +2 +2 по сезону 1006.5 1006.1 0.1
Ю 3 4400 м в посл. час дождь {морось} 10/9 100 м
[]
+5.9 +5.2 95 +2 +2 по сезону 1006.1 1005.7 0.1
Ю 4 5000 м дымка 10/10 200 м
[]
+6.1 +5.4 95 +2 +2 по сезону 1006.0 1005.6
Ю 4-7
{7}
7000 м дымка 10/10 150 м
[]
+6.3 +5.4 94 +2 +2 по сезону 1005.9 1005.5 +1.8
Ю 4 7000 м дымка 9/8 200 м
[]
+6.2 +5.2 93 +2 +2 по сезону 1005.8 1005.4
Ю 5 10 км 3/1 200 м
[]
+6.3 +5.2 93 +2 +2 по сезону 1005.6 1005.2
Ю 6-10
{11}
14 км 9/9 240 м
[]
+7.5 +5.7 88 +3 +3 по сезону 1005.6 1005.2
ЮЗ 6 22 км в посл. час дождь {ливн. осадки} 9/9 1500 м
[]
+8.4 +5.8 84 +4 +5 по сезону 1005.5 1005.1
ЮЗ 7 21 км {ливн. осадки, дымка} 10/8 1000 м
[]
+9.0 +5.7 80 +5 +5 тепло 1005.2 1004.8
ЮЗ 7-12
{12}
25 км {ливн. осадки, дымка} 10/10 600 м
[]
+10.4 +4.6 67 +7 +7 тепло 1004.9 1004.6
ЮЗ 7 28 км 9/9 1500 м
[]
+10.1 +3.6 64 +7 +7 тепло 1005.1 1004.7
ЮЗ 7 35 км 10/10 1500 м
[]
+9.3 +3.4 67 +6 +6 тепло 1005.4 1005.0
ЮЗ 6-10
{12}
30 км 9/9
[]
+8.9 +2.6 65 +5 +5 тепло 1005.5 1005.1
ЮЗ 5 45 км 10/10
[]
+8.4 +2.9 68 +5 +5 тепло 1005.7 1005.3
ЮЗ 3 45 км 10/10 2000 м
[]
+7.9 +2.9 71 +5 +5 тепло 1006.2 1005.7
ЮЗ 3-4
{10}
40 км 10/10 2000 м
[]
+7.0 +3.2 77 +4 +4 по сезону 1006.3 1005.9 +10.7
Ю 3 27 км 10/10
[]
+6.9 +3.5 79 +4 +4 по сезону 1006.4 1006.0
Ю 3 21 км 10/10
[]
+6.3 +2.9 79 +3 +3 по сезону 1006.4 1006.0
Ю 3-5
{5}
21 км 10/10 2000 м
[]
+5.9 +2.9 81 +3 +3 по сезону 1006.8 1006.4
Ю 2-3
{4}
20 км 10/10
[]
+5.4 +2.9 84 +3 +3 по сезону 1006.9 1006.5
Ю 2-4
{4}
15 км ясно +4.2 +2.5 89 +1 +1 по сезону 1007.2 1006.8
ЮВ 1-2
{5}
6000 м дымка 1/0
[]
+2.0 +1.3 95 0 0 по сезону 1007.7 1007.2
Ю 2-2
{2}
5000 м дымка 10/10
[]
+1.6 +1.2 97 -2 -2 по сезону 1007.8 1007.4
Ю 2-3
{3}
2600 м дымка ясно +1.0 +0.4 96 -3 -3 прохладно 1008.2 1007.8
ЮВ 2-2
{3}
300 м туман {дымка} 1/1
[]
+0.3 -0.1 97 -4 -4 прохладно 1008.8 1008.3
ЮВ 1 100 м переохл. туман {дымка} ясно -0.2 -0.5 98 -2 -2 по сезону 1009.2 1008.7
Ю 1 1300 м в посл. час туман {дымка} ясно +0.5 +0.2 98 -2 -2 по сезону 1009.8 1009.3
ЮВ 1-2
{3}
100 м переохл. туман {дымка} ясно -0.6 -0.7 99 -3 -3 прохладно 1010.2 1009.8 -0.6
ЮВ 2 200 м переохл. туман 1/1
[]
-0.9 -1.3 97 -5 -5 холодно 1011.1 1010.6
ЮВ 1 3900 м в посл. час туман ясно +1.4 +1.1 98 -1 -0 по сезону 1011.9 1011.4
Ю 1-2
{3}
8000 м дымка {туман} ясно +3.5 +1.6 87 +2 +3 по сезону 1012.8 1012.3
Ю 1 12 км ясно +5.2 +2.3 82 +4 +6 по сезону 1013.3 1013.0
Ю 1 15 км ясно +6.9 +2.8 75 +6 +9 тепло 1013.4 1013.1
Ю 1-2
{3}
18 км ясно +8.0 +3.1 71 +7 +10 тепло 1013.4 1013.0
ЮВ 1 21 км ясно +8.7 +3.3 69 +8 +10 тепло 1013.5 1013.1
Ю 1 24 км ясно +9.1 +2.4 63 +9 +10 тепло 1013.8 1013.4
Ю 1-1
{2}
24 км ясно +8.5 +3.0 68 +8 +8 тепло 1014.1 1013.7
Ю 1 13 км ясно +4.7 +2.6 86 +3 +3 по сезону 1014.2 1013.8
штиль 0 6000 м дымка ясно +2.1 +1.1 93 +1 +1 по сезону 1014.7 1014.2
штиль 0-1
{2}
1100 м в посл. час туман {дымка} ясно +0.9 +0.5 97 -0 -0 по сезону 1014.9 1014.6 +9.4
ЮВ 1 500 м переохл. туман ясно -0.2 -0.6 97 -2 -2 по сезону 1014.6 1014.3
Ю 2 400 м переохл. туман ясно -0.6 -0.8 99 -5 -5 холодно 1014.1 1013.7
ЮВ 2-2
{2}
1400 м в посл. час туман 3/0
[]
-1.3 -1.5 99 -5 -5 холодно 1013.9 1013.6
ЮВ 3-4
{4}
200 м переохл. туман 3/3
[]
-1.1 -1.8 95 -6 -6 холодно 1013.0 1012.9
Ю 2-3
{3}
3600 м в посл. час туман 6/6
[]
+1.3 +0.8 96 -2 -2 по сезону 1013.2 1012.8
Ю 2-3
{5}
1100 м в посл. час туман {дымка} 9/0
[]
-0.1 -0.7 96 -4 -4 прохладно 1012.8 1012.5
Ю 3-4
{4}
3300 м дымка 10/10
[]
+1.1 +0.7 97 -4 -4 прохладно 1011.9 1011.4
ЮВ 2-3
{4}
3600 м дымка 10/10
[]
+1.3 +0.8 96 -2 -2 по сезону 1011.4 1011.0
ЮВ 3-4
{4}
4100 м дымка 10/10 1200 м
[]
+1.7 +1.1 96 -3 -3 прохладно 1010.4 1010.2
ЮВ 3 4500 м дымка 10/10 1000 м
[]
+2.2 +1.6 96 -2 -2 по сезону 1009.0 1008.8
Ю 4 6000 м дымка 10/10 100 м
[]
+2.8 +2.1 95 -2 -2 по сезону 1007.9 1007.6
ЮВ 4-6
{7}
8000 м дымка 10/10 120 м
[]
+3.4 +2.6 94 -1 -1 по сезону 1006.7 1006.5 -1.3
ЮВ 4 10 км 10/10 1000 м
[]
+4.1 +3.0 93 -1 -1 по сезону 1005.5 1005.2
Ю 5 15 км 10/10 1000 м
[]
+5.2 +3.5 89 +1 +1 по сезону 1005.0 1004.6
Ю 5-8
{9}
24 км 10/10 400 м
[]
+6.6 +4.2 85 +2 +2 по сезону 1003.8 1003.4
Ю 5 35 км 10/10 600 м
[]
+7.4 +4.0 79 +4 +4 по сезону 1002.8 1002.4
Ю 6 45 км 10/10 600 м
[]
+7.7 +3.8 76 +4 +4 по сезону 1001.8 1001.5
Ю 6-9
{11}
45 км 10/10 600 м
[]
+7.8 +3.9 76 +4 +4 по сезону 1000.6 1000.2
Ю 7 35 км слаб. морось с дождем 10/10 600 м
[]
+7.5 +4.1 79 +3 +3 по сезону 999.6 999.3
Ю 6 14 км слаб. дождь {морось} 10/9 600 м
[]
+6.6 +4.3 85 +2 +2 по сезону 999.2 998.8 0.4
Ю 6-10
{12}
45 км слаб. дождь {морось} 10/10 330 м
[]
+6.1 +4.2 88 +1 +1 по сезону 998.6 998.1 0.6
ЮЗ 6 30 км в посл. час дождь {ливн. осадки, морось} 10/9 300 м
[]
+6.4 +4.8 89 +2 +2 по сезону 998.5 998.0
Ю 4 40 км в посл. час морось {ливн. осадки, дождь} 10/8 1000 м
[]
+6.4 +4.9 90 +3 +3 по сезону 998.6 998.2
ЮЗ 4-7
{12}
5000 м ливневой дождь 10/10 210 м
[]
+6.3 +5.5 95 +2 +2 по сезону 999.5 999.0 +7.9 2
ЮЗ 4 30 км в посл. час дождь 9/6 1000 м
[]
+6.3 +4.9 91 +2 +2 по сезону 999.2 998.9 2
ЮЗ 6 20 км ливневой дождь 10/8 1000 м
[]
+6.1 +4.5 89 +1 +1 по сезону 999.7 999.3
Ю 4-6
{11}
16 км слаб. ливневой дождь 9/9 570 м
[]
+5.7 +4.5 92 +2 +2 по сезону 1000.0 999.6 0.3
Ю 5-9
{11}
30 км в посл. час дождь {ливн. осадки} 10/9 1000 м
[]
+5.8 +4.0 88 +1 +1 по сезону 999.8 999.4 0.1
ЮЗ 6-9
{10}
9000 м слаб. ливневой дождь 10/6 1000 м
[]
+5.4 +3.7 89 0 0 по сезону 1000.1 999.7 0.5
ЮЗ 4-8
{11}
20 км слаб. дождь {морось} 10/10 360 м
[]
+5.0 +3.6 91 +1 +1 по сезону 1000.2 999.8 2
Ю 5-7
{10}
10 км дождь 10/6 600 м
[]
+5.2 +3.8 91 +1 +1 по сезону 999.9 999.5 2
Ю 5-8
{10}
18 км в посл. час дождь 10/10 1500 м
[]
+4.9 +3.5 91 0 0 по сезону 999.7 999.2 0.7
Ю 6-10
{12}
7000 м слаб. ливневой дождь {морось} 10/10 720 м
[]
+5.1 +3.7 91 -0 -0 по сезону 999.7 999.2 0.6
Ю 4 14 км в посл. час дождь {ливн. осадки} 10/8 300 м
[]
+5.0 +3.8 92 +1 +1 по сезону 999.6 999.2 1
Ю 4 16 км в посл. час морось {ливн. осадки, дождь} 10/9 300 м
[]
+4.7 +3.5 92 0 0 по сезону 999.4 999.0
Ю 5-8
{10}
18 км {ливн. осадки, дождь} 10/10 210 м
[]
+4.4 +3.0 91 -1 -1 по сезону 999.6 999.2 +4.3
Ю 3 18 км 10/10 200 м
[]
+4.1 +2.8 91 0 0 по сезону 999.3 999.0
Ю 3 18 км 10/10 300 м
[]
+4.6 +3.0 89 +1 +1 по сезону 999.6 999.1
Ю 5-8
{9}
24 км 10/10 300 м
[]
+5.0 +3.0 87 0 0 по сезону 999.3 999.0
Ю 5 30 км 10/10 300 м
[]
+5.2 +2.7 84 +1 +1 по сезону 999.3 998.9
Ю 5 35 км 10/10 300 м
[]
+5.7 +2.9 82 +1 +1 по сезону 998.9 998.6
ЮЗ 5-8
{14}
23 км слаб. морось 8/8 330 м
[]
+4.1 +2.5 89 -1 -1 по сезону 998.8 998.4 0.6
Ю 5 40 км в посл. час морось 8/8 2000 м
[]
+5.9 +3.3 83 +2 +2 по сезону 998.4 998.0
Ю 4 30 км 9/8 600 м
[]
+7.0 +4.0 81 +3 +4 по сезону 998.2 997.8
Ю 6 45 км 10/10
[]
+5.7 +2.3 79 +1 +1 по сезону 998.1 997.7
Местоположение метеостанции Де Билт (Нидерланды): широта 52.10 долгота 5.18 высота над уровнем моря 4 м.
В архиве по умолчанию представлена погода в Де Билте за последнюю неделю. Архивные данные за месяц целиком и за предыдущие месяцы, начиная с января 2011 года, Вы можете получить, выбрав интересующий диапазон дат из раскрывающегося списка и нажав кнопку "Найти!".
*Определитесь, кто Вы:
Внимание! Время в таблицах - всемирное. Для получения местного времени необходимо прибавить поправку, которая равна 1 ч.
Смотрите также архив погоды в соседних городах и на ближайших метеорологических станциях:
Партнеры нашего сайта:      
Пояснения к столбцам:
  • Ветер - указаны скорость ветра в м/с - средняя за 10 мин, порывы в срок и между сроками (в фигурных скобках) и направление, откуда дует ветер: С - северный,
  • СВ - северо-восточный, В - восточный, ЮВ - юго-восточный, Ю - южный, ЮЗ - юго-западный, З - западный, СЗ - северо-западный.
  • Видимость - горизонтальная дальность видимости в метрах или километрах. При видимости от 1 до 10 км при отсутствии осадков обычно наблюдается дымка, при ухудшении видимости до 1 км и менее - туман. В сухую погоду видимость может ухудшаться дымом, пылью или мглою.
  • Явления - указаны атмосферные явления, наблюдавшиеся в срок или в последний час перед сроком; фигурными скобками обозначены явления, наблюдавшиеся между сроками (за 1-3 часа до срока); квадратными скобками обозначены град или гололедные отложения с указанием их диаметра в мм.
  • Облачность - указаны через наклонную черту общая и нижняя облачность в баллах и высота нижней границы облаков в метрах; квадратными скобками обозначены формы облаков: Ci - перистые, Cs - перисто-слоистые, Cc - перисто-кучевые, Ac - высококучевые, As - высокослоистые, Sc - слоисто-кучевые, Ns - слоисто-дождевые, Cu - кучевые, Cb - кучево-дождевые. Подробнее классификацию облаков см. в Атласе облаков (PDF).
  • T - Температура воздуха - температура, измеренная на высоте 2 м над землей.
  • Td - Температура точки росы - температура, при понижении до которой содержащийся в воздухе водяной пар достигнет насыщения.
  • f - Относительная влажность воздуха - влажноcть воздуха, измеренная на высоте 2 м над землей.
  • Te - Эффективная температура - температура, которую ощущает одетый по сезону человек в тени. Характеристика душности погоды. При расчете учитывается влияние влажности воздуха и скорости ветра на теплоощущения человека.
  • Tes - Эффективная температура на солнце - температура, которую ощущает человек, с поправкой на солнечный нагрев. Характеристика знойности погоды. Зависит от высоты солнца над горизонтом, облачности и скорости ветра. Ночью, в пасмурную погоду, а также при ветре 12 м/с и более поправка равна нулю.
  • P - Атмосферное давление - приведенное к уровню моря атмосферное давление.
  • Po - Атмосферное давление - измеренное на уровне метеостанции атмосферное давление.
  • Tmin - Минимальная температура - минимум температуры воздуха на высоте 2 м над землей.
  • Tmax - Максимальная температура - максимум температуры воздуха на высоте 2 м над землей.
  • R - Количество осадков - Количество выпавших осадков за период времени, мм. При наведении курсора мыши на число - период времени, за который выпало указанное количество осадков.
  • R24 - Количество осадков - Количество выпавших осадков за 24 часа, мм.
  • S - Снежный покров - Высота снежного покрова, см. При наведении курсора мыши на число - состояние снежного покрова и степень покрытия местности в баллах.